Wind_Speed
16 17 18 17 14 15 17 17 17 18 18 19 18 17 16 15 15 15 14 14 12 13 12 12 15 16 15 14 12 9 8 7 6
20 20 20 21 20 18 16 18 19 19 20 19 19 18 18 18 18 18 18 17 15 15 14 12 13 14 13 12 11 10 9 8 8
19 20 21 22 23 22 20 20 18 20 21 21 20 21 21 20 21 21 21 20 18 17 15 15 14 14 13 12 12 12 10 10 10
20 20 20 20 21 22 22 22 22 20 21 23 23 24 23 24 23 22 23 22 22 19 17 18 16 15 15 14 14 12 12 11 11
21 21 21 21 21 21 22 23 24 25 24 22 24 25 26 26 27 26 26 25 25 24 20 23 18 16 16 16 15 14 13 13 12
18 20 22 23 23 24 24 25 26 27 28 26 23 25 28 28 30 30 29 27 27 28 24 24 23 18 18 18 17 16 16 15 14
15 16 18 21 23 25 26 27 28 28 29 30 28 25 27 30 32 34 32 30 29 29 29 25 27 22 19 19 19 19 18 17 15
13 13 14 15 18 21 25 28 29 31 31 30 30 28 31 30 31 35 35 34 32 31 32 29 29 27 22 20 21 21 20 18 17
13 14 14 15 16 18 19 22 25 29 31 31 31 31 34 33 32 31 35 36 33 34 33 34 31 31 27 24 23 23 21 20 19
14 14 13 13 14 16 16 18 20 23 27 31 34 33 31 31 32 31 28 34 35 33 32 35 35 34 31 27 25 24 23 22 21
15 16 16 16 17 17 18 20 20 20 22 25 28 32 34 31 29 30 28 30 27 33 32 33 36 37 34 29 26 25 25 23 21
16 16 17 18 19 21 21 22 21 21 21 22 23 26 28 30 29 28 28 27 27 26 29 29 37 39 36 32 27 23 25 26 25
14 15 17 19 20 20 21 21 21 21 21 24 23 23 24 25 22 28 26 23 28 25 24 30 33 35 35 35 30 27 25 26 27
14 15 17 19 19 18 20 19 21 21 22 24 22 23 23 21 19 22 24 23 21 25 20 23 28 32 36 34 34 28 26 25 26
14 15 17 19 19 19 18 19 17 18 20 22 23 23 19 16 18 22 24 22 19 18 17 17 21 29 33 34 35 31 29 27 26
14 15 16 18 19 18 16 18 19 18 20 23 23 19 15 11 15 18 16 17 11 14 8 19 19 21 20 29 34 27 24 26 35
14 15 16 17 17 18 16 17 21 21 22 24 17 15 11 19 14 4 5 10 9 9 8 11 14 18 13 30 25 22 32 22 20
16 16 15 15 16 16 16 15 17 20 22 21 9 8 8 24 15 7 4 5 8 9 5 6 9 13 17 22 23 20 23 22 21
16 16 15 15 15 15 14 15 15 16 16 18 15 9 14 9 8 12 6 4 7 10 11 7 9 13 13 14 15 13 12 13 17
16 16 15 15 14 14 14 12 12 14 15 14 18 14 10 10 7 6 4 8 5 6 5 3 9 5 7 8 11 15 15 14 12
Wind_Direction
272 270 271 272 274 277 276 275 275 271 271 268 265 262 258 256 252 250 250 255 252 244 246 244 248 253 257 259 258 251 245 241 237
279 275 275 276 275 269 272 274 275 271 270 269 264 258 256 255 252 251 252 258 259 252 251 253 258 254 251 246 241 239 230 230 228
284 280 276 274 274 273 267 268 275 274 271 268 263 261 257 257 250 251 252 256 257 259 252 255 263 256 249 237 235 233 230 226 226
285 282 280 277 275 274 270 265 264 268 269 268 264 260 259 258 254 250 252 253 255 254 250 257 260 257 250 242 237 232 231 227 226
284 283 281 279 277 276 275 268 262 263 264 264 263 262 261 258 253 249 250 250 250 251 243 252 255 256 251 245 240 237 231 229 228
289 285 281 278 275 274 273 273 271 268 265 265 263 264 260 257 255 252 249 249 248 248 247 242 250 252 253 248 242 237 234 233 233
304 300 293 286 280 276 273 271 271 271 269 267 264 260 262 261 258 255 253 249 247 246 245 241 243 249 250 248 244 239 237 236 234
317 312 304 295 287 281 275 272 270 270 271 269 265 258 258 259 258 256 255 252 249 244 242 239 242 242 248 249 247 244 237 236 236
316 311 309 306 304 300 296 289 281 274 271 270 269 265 259 260 259 260 254 254 250 250 243 238 240 242 241 248 250 246 242 239 237
333 334 328 324 325 321 315 310 303 292 281 273 268 266 264 264 263 263 263 256 252 249 251 242 237 240 239 244 246 245 243 239 238
342 343 342 344 337 334 331 326 317 311 305 294 285 277 267 264 263 262 262 260 256 249 247 247 238 237 237 240 240 243 242 241 240
344 344 346 348 345 341 336 331 321 314 311 310 303 298 287 266 261 261 263 264 259 257 246 245 239 235 234 237 236 243 245 242 241
338 341 347 350 345 338 333 330 324 320 320 316 311 304 305 269 258 256 261 267 248 257 259 243 244 233 234 235 236 239 246 245 243
333 339 344 344 343 335 328 332 335 333 327 320 315 310 301 281 261 256 257 264 256 253 265 257 243 240 234 242 235 238 242 242 241
329 332 339 342 339 332 335 337 346 351 336 329 326 324 307 287 269 265 255 258 254 258 267 261 247 246 240 246 227 229 229 234 236
328 326 331 340 340 340 341 344 347 1 356 338 339 354 344 310 278 269 242 237 229 241 239 262 278 264 261 260 249 255 249 243 230
329 324 326 333 340 343 348 357 350 351 358 347 340 344 13 358 349 291 210 204 205 233 212 228 265 267 241 285 293 289 256 270 259
331 326 324 327 331 340 344 345 353 350 3 1 337 338 329 342 3 2 13 167 158 180 172 187 208 224 216 226 237 244 229 249 260
325 326 327 322 323 326 335 339 347 349 355 359 357 328 314 320 340 3 21 86 156 160 164 179 192 208 221 237 245 207 193 198 209
317 319 320 321 318 317 321 327 333 343 345 351 352 355 350 339 305 325 359 61 92 102 106 128 171 231 223 231 237 243 246 229 234
Height
1525 1524 1523 1522 1522 1522 1522 1522 1522 1522 1522 1521 1521 1521 1522 1522 1522 1522 1522 1522 1523 1523 1523 1522 1523 1523 1524 1524 1524 1525 1525 1525 1525
1523 1522 1521 1520 1519 1519 1519 1518 1518 1518 1518 1518 1518 1518 1519 1519 1520 1520 1520 1520 1521 1521 1521 1521 1521 1521 1521 1522 1523 1523 1524 1524 1524
1519 1518 1518 1517 1515 1515 1515 1515 1515 1514 1514 1515 1515 1515 1516 1516 1516 1517 1517 1517 1518 1518 1518 1519 1519 1519 1519 1519 1520 1521 1522 1523 1523
1516 1515 1514 1513 1512 1511 1511 1511 1510 1510 1510 1510 1511 1511 1512 1512 1513 1513 1513 1514 1514 1515 1516 1516 1517 1517 1517 1518 1518 1519 1520 1521 1522
1512 1511 1510 1509 1508 1507 1507 1506 1505 1505 1504 1504 1505 1506 1507 1507 1507 1508 1509 1510 1510 1511 1513 1513 1514 1514 1515 1516 1516 1517 1518 1519 1520
1508 1507 1506 1505 1504 1503 1502 1501 1501 1500 1500 1500 1500 1500 1500 1501 1501 1502 1504 1505 1506 1507 1508 1510 1510 1511 1512 1513 1514 1515 1516 1517 1518
1506 1504 1502 1501 1500 1498 1497 1496 1495 1494 1494 1494 1495 1494 1494 1494 1495 1495 1497 1499 1500 1501 1503 1505 1506 1508 1509 1510 1511 1513 1514 1515 1516
1503 1501 1499 1497 1494 1493 1492 1491 1490 1488 1487 1487 1487 1487 1488 1486 1486 1487 1489 1492 1494 1495 1497 1500 1501 1503 1505 1507 1508 1509 1510 1512 1513
1501 1498 1496 1494 1492 1490 1488 1486 1484 1483 1482 1481 1481 1481 1481 1480 1479 1479 1480 1482 1486 1489 1490 1493 1496 1498 1501 1503 1504 1506 1507 1509 1510
1499 1496 1494 1492 1490 1487 1485 1482 1480 1477 1476 1475 1473 1473 1473 1473 1473 1473 1473 1474 1477 1481 1483 1486 1489 1492 1495 1498 1500 1502 1504 1506 1507
1497 1494 1492 1490 1487 1485 1482 1479 1476 1474 1471 1469 1467 1465 1465 1465 1465 1465 1466 1467 1468 1472 1476 1479 1482 1485 1489 1492 1495 1497 1500 1502 1504
1495 1492 1490 1488 1485 1482 1480 1477 1474 1471 1468 1465 1462 1459 1458 1458 1458 1459 1459 1460 1462 1464 1468 1471 1474 1477 1482 1486 1489 1493 1495 1498 1501
1494 1492 1489 1486 1483 1480 1478 1475 1471 1467 1465 1461 1458 1455 1452 1450 1451 1452 1454 1454 1456 1459 1462 1464 1465 1467 1473 1479 1483 1486 1490 1493 1496
1493 1491 1488 1485 1482 1479 1476 1473 1469 1465 1461 1457 1454 1451 1447 1444 1445 1445 1447 1449 1450 1453 1457 1459 1461 1459 1470 1473 1477 1480 1483 1486 1490
1492 1490 1487 1484 1481 1478 1474 1471 1467 1464 1458 1454 1450 1446 1442 1440 1440 1440 1442 1444 1446 1449 1452 1453 1457 1460 1464 1467 1454 1473 1475 1480 1483
1490 1488 1486 1483 1480 1476 1473 1469 1466 1461 1457 1452 1448 1443 1439 1436 1435 1435 1436 1439 1442 1446 1446 1448 1452 1453 1460 1463 1466 1461 1468 1468 1476
1488 1486 1484 1482 1479 1476 1472 1469 1464 1461 1457 1453 1448 1443 1441 1438 1436 1434 1434 1436 1439 1440 1443 1447 1449 1450 1451 1457 1460 1466 1465 1464 1460
1486 1484 1482 1480 1477 1475 1472 1469 1465 1461 1458 1454 1452 1448 1445 1440 1438 1437 1436 1435 1438 1439 1442 1442 1444 1446 1448 1452 1456 1455 1461 1463 1464
1485 1482 1480 1478 1476 1473 1471 1468 1465 1462 1458 1455 1452 1451 1450 1446 1442 1441 1440 1439 1439 1439 1441 1444 1447 1450 1451 1453 1454 1455 1458 1458 1458
1482 1480 1478 1476 1474 1471 1469 1467 1465 1462 1459 1456 1452 1449 1449 1448 1446 1442 1443 1442 1442 1442 1443 1446 1448 1450 1451 1450 1452 1454 1456 1457 1459